User: anonymous   Login
Location: Unspecified
(0.0000°N, 0.0000°E)
Time: 10:14:37
(UTC+00:00)
Language:

P76-5 - Orbit

View from above orbital plane
View from above orbital plane
View from above satellite
View from above satellite

Ground track
Ground track

The orbit data is extracted from the following two-line orbital elements,

1  8860U 76047A   18113.93071809 +.00000000 +00000-0 +53842-4 0  9993
2  8860 099.6922 228.7282 0041975 016.4594 089.4652 13.67576432089507
Epoch (UTC): 23 April 2018 22:20:14
Eccentricity: 0.0041975
inclination: 99.6922°
perigee height: 977 km
apogee height: 1039 km
right ascension of ascending node: 228.7282°
argument of perigee: 16.4594°
revolutions per day: 13.67576432
mean anomaly at epoch: 89.4652°
orbit number at epoch: 8950

The dashed part of the orbit path shows where the satellite is in the earth's shadow,  

DLR